Weather History for KVPS - May, 2013

Change the Weather History Date:

Sunday, May 19, 2013

  Actual Average Record
Temperature  
Mean Temperature 74 °F -  
Max Temperature 82 °F 84 °F 93 °F (1962)
Min Temperature 67 °F 62 °F 48 °F (1976)
Cooling Degree Days 10    
Growing Degree Days 24 (Base 50)    
Moisture  
Dew Point 70 °F    
Average Humidity 84    
Maximum Humidity 96    
Minimum Humidity 65    
Precipitation  
Precipitation 0.00 in - - ()
Sea Level Pressure  
Sea Level Pressure 30.06 in    
Wind  
Wind Speed 4 mph (SSW)    
Max Wind Speed 10 mph    
Max Gust Speed -    
Visibility 9 miles    
Events      
Averages and records for this station are not official NWS values.
T = Trace of Precipitation, MM = Missing Value Source: NWS Daily Summary

Daily Weather History Graph

Daily Weather History Graph

Search for Another Location

Airport or City:

Trip Planner

Search our weather history database for the weather conditions in past years. The results will help you decide how hot, cold, wet, or windy it might be!

Date:

Astronomy

May. 19, 2013 Rise Set
Actual Time 5:49 AM CDT 7:36 PM CDT
Civil Twilight 5:22 AM CDT 8:02 PM CDT
Nautical Twilight 4:50 AM CDT 8:34 PM CDT
Astronomical Twilight 4:16 AM CDT 9:08 PM CDT
Moon 2:02 PM CDT (5/19) 1:47 AM CDT (5/19)
Length of Visible Light 14h 40m
Length of Day
13h 46m
Waxing Gibbous, 65% of the Moon is Illuminated
May 19
Waxing Gibbous
May 24
Full
May 31
Last Quarter
Jun 8
New
Jun 16
First Quarter

Hourly Weather History & Observations

Time (CDT) Temp. Heat Index Dew Point Humidity Pressure Visibility Wind Dir Wind Speed Gust Speed Precip Events Conditions
12:55 AM 73.4 °F - 70.2 °F 90% 30.06 in 10.0 mi SW 3.5 mph - N/A   Scattered Clouds
1:55 AM 73.4 °F - 70.5 °F 91% 30.04 in 10.0 mi SW 3.5 mph - N/A   Scattered Clouds
2:55 AM 72.9 °F - 70.5 °F 92% 30.04 in 10.0 mi West 1.2 mph - N/A   Scattered Clouds
3:50 AM 69.8 °F - 68.0 °F 94% 30.03 in 5.0 mi Calm Calm - N/A   Scattered Clouds
3:55 AM 69.3 °F - 67.5 °F 94% 30.05 in 5.0 mi Calm Calm - N/A   Scattered Clouds
4:55 AM 68.2 °F - 66.7 °F 95% 30.06 in 6.0 mi Calm Calm - N/A   Scattered Clouds
5:55 AM 67.5 °F - 66.4 °F 96% 30.08 in 5.0 mi NNW 2.3 mph - N/A   Mostly Cloudy
6:55 AM 70.7 °F - 68.9 °F 94% 30.08 in 6.0 mi Calm Calm - N/A   Scattered Clouds
7:55 AM 76.3 °F - 71.2 °F 84% 30.09 in 7.0 mi South 2.3 mph - N/A   Mostly Cloudy
8:55 AM 77.2 °F - 71.1 °F 81% 30.10 in 10.0 mi South 5.8 mph - N/A   Mostly Cloudy
9:55 AM 79.2 °F - 70.3 °F 74% 30.10 in 10.0 mi South 8.1 mph - N/A   Mostly Cloudy
10:55 AM 80.4 °F 83.0 °F 67.8 °F 65% 30.10 in 10.0 mi SSW 8.1 mph - N/A   Mostly Cloudy
11:55 AM 80.4 °F 83.5 °F 69.4 °F 69% 30.09 in 10.0 mi South 10.4 mph - N/A   Mostly Cloudy
12:58 PM 82.4 °F 86.1 °F 69.6 °F 65% 30.08 in 10.0 mi South 10.4 mph - N/A   Mostly Cloudy
1:56 PM 81.0 °F 84.6 °F 70.5 °F 70% 30.07 in 10.0 mi South 10.4 mph - N/A   Mostly Cloudy
2:56 PM 81.1 °F 84.9 °F 70.7 °F 70% 30.06 in 10.0 mi South 10.4 mph - N/A   Mostly Cloudy
3:58 PM 78.8 °F - 70.7 °F 76% 30.05 in 10.0 mi SSW 9.2 mph - N/A   Overcast
4:58 PM 77.7 °F - 71.2 °F 80% 30.04 in 10.0 mi South 9.2 mph - N/A   Overcast
5:59 PM 77.2 °F - 71.4 °F 82% 30.03 in 10.0 mi SSW 8.1 mph - N/A   Overcast
6:55 PM 76.6 °F - 71.2 °F 83% 30.03 in 10.0 mi SSW 6.9 mph - N/A   Overcast
7:57 PM 75.4 °F - 71.4 °F 87% 30.03 in 10.0 mi SW 5.8 mph - N/A   Mostly Cloudy
8:56 PM 75.2 °F - 71.8 °F 89% 30.04 in 10.0 mi SSW 4.6 mph - N/A   Mostly Cloudy
9:55 PM 75.0 °F - 71.6 °F 89% 30.07 in 10.0 mi South 4.6 mph - N/A   Mostly Cloudy
10:30 PM 75.2 °F - 71.6 °F 89% 30.07 in 10.0 mi South 3.5 mph - N/A   Mostly Cloudy
10:57 PM 74.7 °F - 71.6 °F 90% 30.07 in 10.0 mi South 4.6 mph - N/A   Mostly Cloudy
11:17 PM 75.2 °F - 71.6 °F 89% 30.06 in 10.0 mi SSW 2.3 mph - N/A   Mostly Cloudy
11:55 PM 75.0 °F - 72.0 °F 90% 30.07 in 10.0 mi Calm Calm - N/A   Mostly Cloudy